Regional Weather Roundup
Issued by NWS Wakefield, VA

Home | Current Version | Previous Version | Graphics & Text | Print | Product List | Glossary On
Versions: 1 2 3 4 5 6 7 8 9 10 11 12 13 14 15 16 17 18 19 20 21 22 23 24 25 26 27
000
ASUS41 KAKQ 200915
RWRAKQ

REGIONAL WEATHER ROUNDUP
NATIONAL WEATHER SERVICE WAKEFIELD VA
400 AM EST TUE FEB 20 2018

Note: "fair" indicates few or no clouds below 12,000 feet with no
significant weather and/or obstructions to visibility. * = Denotes
station may not report precipitation (e.g., rain,snow,etc.),
thunder or fog.

VAZ042-051-052>054-056-201000-
NORTHERN VIRGINIA

CITY           SKY/WX    TMP DP  RH WIND       PRES   REMARKS
WASH NATIONAL  CLOUDY    53  52  96 SW13      30.33S
DULLES         CLOUDY    50  50 100 S15       30.30F
FORT BELVOIR   CLOUDY    51  50  95 S5        30.34R
QUANTICO       CLOUDY    50  49  96 SW9       30.35S
FREDERICKSBRG* CLOUDY    53  53 100 SW9       30.34F
STAFFORD*      CLOUDY    53  53 100 S6        30.38S
WARRENTON      CLOUDY    53  49  86 S8        30.32F
CULPEPER*      CLOUDY    52  50  91 SW12      30.33F
MANASSAS*      CLOUDY    52  50  93 S7        30.33S
LEESBURG*      CLOUDY    46  46 100 SW5       30.31S FOG
WINCHESTER     FAIR      52  48  87 SW8       30.28S
FRONT ROYAL*   FAIR      54  50  87 SW10G16   30.28S
LURAY*         FAIR      52  50  93 SW10      30.31S
$$

VAZ048-049-060>072-079>083-201000-
CENTRAL AND SOUTH CENTRAL VIRGINIA

CITY           SKY/WX    TMP DP  RH WIND       PRES   REMARKS
RICHMOND       CLOUDY    53  53 100 S6        30.38R FOG
CHESTERFIELD*  CLOUDY    53  53 100 SW3       30.39R FOG
PETERSBURG*    CLOUDY    52  52 100 CALM      30.40R FOG
HANOVER        CLOUDY    54  53  97 S3        30.38S
TAPPAHANNOCK*  CLOUDY    55  55 100 S5        30.38S FOG
QUINTON*       CLOUDY    53  53 100 S6        30.39R FOG
CHARLOTTSVILLE CLOUDY    50  49  96 S10       30.33S FOG
GORDONSVILLE*  CLOUDY    51  51 100 SW9       30.34S
ORANGE*        CLOUDY    50  48  93 SW8       30.34S
LOUISA*        CLOUDY    51  51  99 SW9       30.39S FOG
BUMPASS*       CLOUDY    51  50  95 SW7       30.36S
FARMVILLE*     CLOUDY   N/A N/A N/A SW6       30.37S HAZE
CREWE*         CLOUDY    52  52 100 W3        30.39R
FORT PICKETT*  CLOUDY    51  51 100 SW8       30.39R
CHASE CITY*    CLOUDY    50  50 100 CALM      30.40R VSB 3/4
CLARKSVILLE*   CLOUDY    50  50 100 CALM      30.40R
SOUTH HILL*    CLOUDY    50  50 100 S3        30.46R VSB 1/2
LAWRENCEVILLE* CLOUDY    51  50  97 CALM      30.39S VSB 1/2
EMPORIA*       FOG       50  50 100 CALM      30.42S VSB 1/2
$$

VAZ088>098-201000-
SOUTHEAST VIRGINIA

CITY           SKY/WX    TMP DP  RH WIND       PRES   REMARKS
NORFOLK        CLOUDY    60  59  96 SW6       30.39S FOG
VIRGINIA BEACH CLOUDY    63  62  97 SW10      30.39S
NORFOLK NAVAL  FOG       54  52  93 NW5       30.42R VSB 1/4
WEST POINT*    CLOUDY    54  53  97 SE3       30.41R
SALUDA*        CLOUDY    55  55 100 SW7       30.38F
NEWPORT NEWS   FOG       53  53 100 CALM      30.40S VSB 1/4
LANGLEY AFB    FOG       54  54 100 SW6       30.40S VSB 1/4
FORT EUSTIS    DRIZZLE   53  53  98 CALM      30.38R FOG
WILLIAMSBURG*  CLOUDY    55  54  94 CALM      30.41R VSB 1/2
HR EXEC AP*    FOG       55  55 100 CALM      30.41S VSB 1/2
FRANKLIN*      FOG       52  51  98 CALM      30.42R VSB 1/2
US460-WAKEFLD  FOG       52  52 100 CALM      30.40S VSB 1/4
$$

VAZ020-022-025-037-045-201000-
WEST CENTRAL AND SOUTHWEST VIRGINIA

CITY           SKY/WX    TMP DP  RH WIND       PRES   REMARKS
STAUNTON*      MOCLDY    48  48  98 CALM      30.35F FOG
WAYNESBORO*    PTSUNNY   46  46  99 CALM      30.33F VSB 3/4
HOT SPRINGS VA FAIR      53  51  92 SW20G25   30.37R
LYNCHBURG      FOG       49  49 100 CALM      30.37F VSB 3/4
DANVILLE       FOG       50  50 100 SW5       30.40S VSB 1/2
SOUTH BOSTON*  CLOUDY    51  50  95 CALM      30.41R VSB 1/2
MARTINSVILLE   CLOUDY    49  48  96 CALM      30.41F FOG
ROANOKE        FOG       48  48 100 CALM      30.39F VSB 1/4
BLACKSBURG     CLOUDY    48  48 100 CALM      30.40S
DUBLIN*        FOG       45  45 100 CALM      30.38S VSB 1/4
MARION*        FAIR      50   9  18 CALM      30.37S
HILLSVILLE*    CLOUDY    54  53  96 SW14G22   30.37S FOG
RICHLANDS*     FAIR      58  49  70 S7        30.32F
WISE*          FAIR      59  52  77 S9        30.32R
ABINGDON*      FAIR      52  50  93 CALM      30.33S
$$

MDZ021>025-VAZ099-100-201000-
SOUTHERN MARYLAND AND THE DELMARVA PENINSULA

CITY           SKY/WX    TMP DP  RH WIND       PRES   REMARKS
PATUXENT RIVER CLOUDY    55  55 100 SW10      30.35S FOG
BAY BRIDGE APT CLOUDY    52  52 100 S9        30.33S FOG
LEONARDTOWN    CLOUDY    54  52  94 SW10G16   30.37S
DOVER          NOT AVBL
GEORGETOWN     CLOUDY    59  57  93 SW13G23   30.35S FOG
EASTON         CLOUDY    55  53  95 SW9       30.37S FOG
CAMBRIDGE      CLOUDY    54  54 100 S9        30.35S FOG
SALISBURY      CLOUDY    58  58 100 SW10      30.37S FOG
OCEAN CITY     FOG       51  51 100 S3        30.38S VSB 1/2
WALLOPS ISLAND CLOUDY    58  57  97 SW6       30.39S FOG
ACCOMACK*      FOG       56  56  99 SW8       30.39R VSB 1/2
$$

NCZ012>017-030>032-201000-
NORTH CENTRAL AND EASTERN NORTH CAROLINA

CITY           SKY/WX    TMP DP  RH WIND       PRES   REMARKS
ROANOKE RAPIDS NOT AVBL
RALEIGH        FOG       51  51 100 CALM      30.41F VSB 1/4
ELIZABETH CITY FAIR      62  62 100 S6        30.41F
AHOSKIE*       DRZL/FOG  51  51 100 CALM      30.41S VSB 1/4
EDENTON*       MOCLDY    63  63 100 S7        30.42S FOG
CURRITUCK*     MOCLDY    59  58  97 S3        30.41F
KILL DEVIL HLS CLOUDY   N/A N/A N/A CALM      30.42S
MANTEO         CLOUDY    61  60  99 S8        30.44S
CAPE HATTERAS  CLOUDY    63  62  97 S7        30.44F
TARBORO*       NOT AVBL
GOLDSBORO      FOG       55  55 100 CALM      30.40R VSB 1/4
WASHINGTON     CLOUDY    63  63  97 S3        30.42S FOG
GREENVILLE     FOG       57  57 100 CALM      30.41F VSB 1/2
NEW BERN       MOCLDY    63  63 100 S5        30.43S FOG
WILMINGTON     FOG       65  65 100 S3        30.41S VSB 3/4
$$

VAZ048-201000-
ELSEWHERE

CITY           SKY/WX    TMP DP  RH WIND       PRES   REMARKS
HARRISBURG PA  FOG       43  41  93 CALM      30.28S VSB 1
BALTIMORE      CLOUDY    50  50 100 SW8       30.31S FOG
ANNAPOLIS      FOG       44  44 100 SE5       30.32S VSB 1/4
ANDREWS AFB    CLOUDY    51  51  99 S12       30.32R FOG
PHILADELPHIA   FOG       48  48 100 SW7       30.32F VSB 1/4
HENDERSON NC   FOG       48  47  97 SW6       30.40S VSB 3/4
GREENSBORO     FOG       51  51 100 CALM      30.39S VSB 1/4
ROCKY MOUNT    FOG       52  52 100 CALM      30.41F VSB 1/4
$$

VAZ100-201000-
MARINE

STATION/POSITION TIME  TEMP    WIND        PRES    WAVE   SWELL
                       AIR SEA DIR/SP/G            HT/PER HT/PER
                 (UTC) (F)     (DEG/KT/KT) (MB)    (FT/S) (FT/S)
BRANDYWINE LGT   0848   53     220/ 10/ 11 1027.9S
CAPE MAY NJ      0848   49 41  160/  5/  7 1027.3F
LEWES DE         0848   60 41  230/  8/ 11 1027.4F
15NM E FENWICK I 0850   46 42  190/ 10/ 12 1029.0R   3/11   3/11
OCEAN-CITY-INLET 0848   44 41  220/  9/ 10 1029.0F
WACHAPREAGUE VA  0848   54 48  230/  3/  5 1029.0S
THOMAS POINT MD  0900   47 38  190/ 13/ 14   N/A
GOOSES REEF MD   0900   47 39  210/  8/ 12 1027.9    1
COVE POINT MD    0848   48     190/  8/ 10 1028.4R
SOLOMONS ISLAND  0848   51 41  220/  9/ 11 1027.6R
BISHOPS HEAD MD  0848   49 45  180/ 11/ 12 1028.5F
POTOMAC MD       0900   49 42  360/  8/ 10 1027.7
CAMBRIDGE MD     0848   53 43              1028.4S
LEWISETTA VA     0848   56 45  240/  9/ 11 1028.3F
RAPPAHANNOCK LGT 0848          180/  9/ 10 1029.7S
STINGRAY PT      0900   49 42  250/  8/  8 1030.3    0
YORK RVR RNG VA  0848   50     250/  8/  9 1029.8R
YORKTOWN VA      0848   54 45  240/  4/  6 1029.0S
DOMINION TERM VA 0848   52     300/  4/  5 1029.8R
KIPTOPEKE VA     0848      44   CALM  /  2   N/A
CAPE HENRY VA    0848          320/  7/  8   N/A
S CRANEY ISL VA  0848   56     240/  3/  4 1029.2S
CAPE HENRY BUOY  0900      43                N/A     3/ 6
1ST LANDING BUOY 0900   48 42  300/  8/ 10 1029.5    1
CAPE CHARLES BUO 0851      43                N/A     2/ 6
64NM E OF VA BCH 0850   55 50  200/ 14/ 14 1030.6F   4/ 5   2/10
DUCK PIER NC     0848   64 45  180/ 12/ 14 1029.5F
44056 DUCK FRF   0900      45                N/A     3/ 6   2/11
OREGON INLET NC  0842   57 49  170/  7/  9 1030.6F
HATTERAS NC      0848   64 56  170/  4/  7 1030.6F
DIAMOND SHLS NC  0900   72 72  170/ 16/ 19 1031.2
CAPE LOOKOUT NC  0900          160/  4/  4 1030.7S
$$




USA.gov is the U.S. government's official web portal to all federal, state and local government web resources and services.